www.pogodaiklimat.ru

Погода и климат >> Архив погоды >> Австралия >> Wyndham Aero


ПОГОДА в Wyndham Aero

  • Прогноз погоды в Wyndham Aero
  • Монитор погоды в Wyndham Aero
  • Климат города

АРХИВ ПОГОДЫ в Wyndham Aero

Время (UTC), дата Ветер
(напр.,м/с)
 
Видим.   Явления Облачность Т
(С)
Тd
(С)
f
(%)
Тe
(С)
Тes
(С)
Комфортность P
(гПа)
Po
(гПа)
Тmin
(С)
Tmax
(С)
R
(мм)
S
(см)
22 13.02 штиль 0 н/о осадки н/о +25.9 +25.9 100 +38 +38 очень
душно
1007.5 1007.0
23 13.02 ЮЗ 3 н/о н/о +26.5 +26.5 100 +40 +40 очень
душно
1008.0 1007.5
00 14.02 штиль 0 н/о н/о +27.3 +27.3 100 +43 +43 опасность
перегрева
1008.3 1007.8
01 14.02 Ю 2 н/о {туман} н/о +27.9 +27.9 100 +46 +46 опасность
перегрева
1008.0 1007.5 +24.9
02 14.02 ЮЗ 2 н/о н/о +29.4 +27.2 88 +47 +47 опасность
перегрева
1008.1 1007.6
03 14.02 штиль 0 н/о н/о +30.7 +27.1 81 +48 +48 опасность
перегрева
1007.3 1006.8
04 14.02 Ю 2 н/о {осадки} н/о +31.2 +26.7 77 +48 +48 опасность
перегрева
1006.3 1005.8
05 14.02 Ю 1 н/о н/о +32.2 +26.3 71 +48 +48 опасность
перегрева
1005.4 1004.9
06 14.02 СВ 3 н/о н/о +32.8 +25.6 66 +48 +48 опасность
перегрева
1005.0 1004.5
07 14.02 С 6 н/о {туман} н/о +28.5 +27.1 92 +45 +45 опасность
перегрева
1005.1 1004.6
08 14.02 С 5 н/о н/о +28.9 +27.7 93 +47 +47 опасность
перегрева
1005.1 1004.6
09 14.02 С 3 н/о н/о +28.4 +26.8 91 +44 +44 опасность
перегрева
1005.9 1005.4
10 14.02 СЗ 3 н/о н/о +28.4 +27.9 97 +47 +47 опасность
перегрева
1006.9 1006.4
11 14.02 З 4 н/о н/о +28.1 +27.6 97 +45 +45 опасность
перегрева
1007.6 1007.1
12 14.02 СВ 2 н/о н/о +26.9 +26.9 100 +42 +42 опасность
перегрева
1008.2 1007.7
13 14.02 СВ 2 н/о н/о +26.8 +26.8 100 +42 +42 опасность
перегрева
1008.6 1008.1 +33.2
14 14.02 штиль 0 н/о н/о +27.0 +27.0 100 +42 +42 опасность
перегрева
1008.6 1008.1
15 14.02 С 2 н/о н/о +27.0 +27.0 100 +42 +42 опасность
перегрева
1008.4 1007.9
16 14.02 С 2 н/о н/о +26.7 +26.7 100 +41 +41 опасность
перегрева
1008.1 1007.6
17 14.02 СЗ 3 н/о н/о +26.7 +26.7 100 +41 +41 опасность
перегрева
1007.6 1007.1
18 14.02 СЗ 3 н/о н/о +26.6 +26.6 100 +41 +41 опасность
перегрева
1007.4 1006.9
19 14.02 СЗ 4 н/о н/о +26.4 +26.4 100 +40 +40 очень
душно
1007.5 1007.0
20 14.02 З 4 н/о н/о +26.8 +26.5 98 +41 +41 опасность
перегрева
1007.8 1007.3
21 14.02 З 5 н/о н/о +26.6 +25.2 92 +38 +38 очень
душно
1008.3 1007.8
22 14.02 З 4 н/о н/о +26.5 +24.5 89 +37 +37 очень
душно
1008.7 1008.2
23 14.02 З 4 н/о н/о +26.8 +24.8 89 +38 +38 очень
душно
1009.5 1009.0
00 15.02 З 4 н/о н/о +27.4 +25.2 88 +40 +40 очень
душно
1009.7 1009.2
01 15.02 СЗ 4 н/о н/о +28.2 +24.8 82 +40 +40 очень
душно
1009.6 1009.1 +24.8 0.2
02 15.02 З 5 н/о н/о +30.0 +24.4 72 +42 +42 опасность
перегрева
1009.0 1008.5
03 15.02 СЗ 5 н/о н/о +31.9 +24.2 64 +44 +44 опасность
перегрева
1008.5 1008.0
04 15.02 ЮЗ 4 н/о н/о +31.7 +24.3 65 +44 +44 опасность
перегрева
1007.7 1007.2
05 15.02 З 2 н/о н/о +32.5 +24.0 61 +44 +44 опасность
перегрева
1006.9 1006.4
06 15.02 З 3 н/о н/о +33.5 +23.5 56 +44 +44 опасность
перегрева
1006.1 1005.6
07 15.02 З 5 н/о н/о +33.7 +24.3 58 +46 +46 опасность
перегрева
1005.9 1005.4
08 15.02 З 6 н/о н/о +33.5 +23.5 56 +44 +44 опасность
перегрева
1005.4 1004.9
09 15.02 З 4 н/о н/о +33.5 +23.5 56 +44 +44 опасность
перегрева
1005.6 1005.1
10 15.02 З 3 н/о н/о +32.0 +24.1 63 +44 +44 опасность
перегрева
1006.4 1005.9
11 15.02 СЗ 4 н/о н/о +30.3 +24.2 70 +42 +42 опасность
перегрева
1006.9 1006.4
12 15.02 С 3 н/о н/о +29.1 +24.7 77 +41 +41 опасность
перегрева
1007.7 1007.2
13 15.02 СЗ 2 н/о н/о +28.8 +24.8 79 +41 +41 опасность
перегрева
1008.2 1007.7 +34.1
14 15.02 СЗ 3 н/о н/о +28.6 +24.6 79 +41 +41 опасность
перегрева
1008.6 1008.1
15 15.02 СЗ 3 н/о н/о +28.2 +24.8 82 +40 +40 очень
душно
1008.3 1007.8
16 15.02 З 5 н/о н/о +28.9 +25.1 80 +42 +42 опасность
перегрева
1008.4 1007.9
17 15.02 З 4 н/о н/о +28.1 +24.9 83 +40 +40 очень
душно
1008.0 1007.5
18 15.02 З 4 н/о н/о +27.7 +24.3 82 +39 +39 очень
душно
1007.7 1007.2
19 15.02 З 4 н/о н/о +27.1 +22.9 78 +36 +36 очень
душно
1007.7 1007.2
20 15.02 З 5 н/о н/о +26.9 +21.9 74 +35 +35 очень
душно
1008.4 1007.9
21 15.02 З 5 н/о н/о +26.4 +21.4 74 +34 +34 очень
душно
1008.8 1008.3
22 15.02 З 4 н/о н/о +26.0 +22.1 79 +34 +34 очень
душно
1009.2 1008.7
23 15.02 З 4 н/о н/о +27.0 +22.2 75 +35 +35 очень
душно
1009.8 1009.3
00 16.02 З 5 н/о н/о +28.3 +23.0 73 +38 +38 очень
душно
1010.3 1009.8
01 16.02 З 5 н/о н/о +29.1 +23.1 70 +39 +39 очень
душно
1010.3 1009.8 +25.7
02 16.02 З 5 н/о н/о +30.3 +23.0 65 +40 +40 очень
душно
1009.8 1009.3
03 16.02 ЮЗ 5 н/о н/о +31.0 +23.9 66 +43 +43 опасность
перегрева
1009.0 1008.5
04 16.02 ЮЗ 6 н/о н/о +32.0 +23.8 62 +43 +43 опасность
перегрева
1008.0 1007.5
05 16.02 ЮЗ 5 н/о н/о +32.6 +22.4 55 +42 +42 опасность
перегрева
1007.1 1006.6
06 16.02 З 6 н/о н/о +33.7 +22.8 53 +44 +44 опасность
перегрева
1006.5 1006.0
07 16.02 ЮЗ 6 н/о н/о +33.6 +21.7 50 +42 +42 опасность
перегрева
1005.8 1005.3
08 16.02 З 5 н/о н/о +33.7 +21.2 48 +41 +41 опасность
перегрева
1005.4 1004.9
09 16.02 ЮЗ 5 н/о н/о +33.4 +21.2 49 +41 +41 опасность
перегрева
1005.8 1005.3
10 16.02 ЮЗ 3 н/о н/о +31.6 +22.6 59 +41 +41 опасность
перегрева
1006.5 1006.0
11 16.02 Ю 2 н/о н/о +30.0 +24.6 73 +43 +43 опасность
перегрева
1007.6 1007.1
12 16.02 С 3 н/о н/о +28.1 +24.7 82 +40 +40 очень
душно
1008.4 1007.9
13 16.02 С 1 н/о н/о +28.0 +25.0 84 +40 +40 очень
душно
1008.9 1008.4 +34.4
14 16.02 В 2 н/о н/о +27.7 +25.1 86 +40 +40 очень
душно
1008.8 1008.3
15 16.02 штиль 0 н/о н/о +27.6 +25.8 90 +41 +41 опасность
перегрева
1008.4 1007.9
16 16.02 штиль 0 н/о н/о +27.1 +26.8 98 +42 +42 опасность
перегрева
1008.3 1007.8
17 16.02 С 2 н/о н/о +26.6 +26.6 100 +41 +41 опасность
перегрева
1007.7 1007.2
18 16.02 СЗ 5 н/о н/о +27.3 +25.5 90 +40 +40 очень
душно
1007.4 1006.9
19 16.02 З 4 н/о н/о +27.1 +25.7 92 +40 +40 очень
душно
1007.4 1006.9
20 16.02 З 5 н/о н/о +27.2 +24.3 84 +38 +38 очень
душно
1008.1 1007.6
21 16.02 З 4 н/о н/о +26.4 +24.1 87 +37 +37 очень
душно
1008.8 1008.3
22 16.02 З 3 н/о н/о +26.5 +24.5 89 +37 +37 очень
душно
1009.2 1008.7
23 16.02 З 3 н/о н/о +28.2 +24.4 80 +40 +40 очень
душно
1010.1 1009.6
00 17.02 З 4 н/о н/о +28.9 +24.7 78 +41 +41 опасность
перегрева
1010.8 1010.3
01 17.02 З 5 н/о н/о +30.5 +24.6 71 +43 +43 опасность
перегрева
1010.8 1010.3 +26.0
02 17.02 З 5 н/о н/о +31.9 +24.2 64 +44 +44 опасность
перегрева
1010.3 1009.8
03 17.02 З 4 н/о н/о +32.9 +24.6 62 +46 +46 опасность
перегрева
1009.9 1009.4
04 17.02 ЮЗ 3 н/о н/о +34.2 +21.9 49 +43 +43 опасность
перегрева
1009.1 1008.6
05 17.02 З 3 н/о н/о +35.2 +21.8 46 +43 +43 опасность
перегрева
1008.2 1007.7
06 17.02 З 3 н/о н/о +35.7 +22.6 47 +45 +45 опасность
перегрева
1007.6 1007.1
07 17.02 СЗ 3 н/о н/о +35.5 +22.1 46 +44 +44 опасность
перегрева
1006.7 1006.2
08 17.02 З 3 н/о н/о +36.4 +20.6 40 +43 +43 опасность
перегрева
1005.9 1005.4
09 17.02 ЮЗ 4 н/о н/о +35.1 +21.0 44 +42 +42 опасность
перегрева
1006.1 1005.6
10 17.02 ЮЗ 1 н/о н/о +33.2 +23.5 57 +44 +44 опасность
перегрева
1007.0 1006.5
11 17.02 С 3 н/о н/о +31.0 +25.1 71 +45 +45 опасность
перегрева
1007.6 1007.1
12 17.02 С 3 н/о н/о +30.6 +25.7 75 +45 +45 опасность
перегрева
1008.1 1007.6
13 17.02 ЮВ 3 н/о н/о +30.3 +26.5 80 +46 +46 опасность
перегрева
1009.2 1008.7 +36.8
14 17.02 С 1 н/о н/о +30.5 +26.0 77 +46 +46 опасность
перегрева
1008.9 1008.4
15 17.02 В 2 н/о н/о +28.8 +26.0 85 +43 +43 опасность
перегрева
1009.3 1008.8
16 17.02 В 5 н/о н/о +29.3 +27.3 89 +47 +47 опасность
перегрева
1009.4 1008.9
17 17.02 В 3 н/о н/о +27.8 +24.0 80 +39 +39 очень
душно
1009.5 1009.0
18 17.02 С 3 н/о н/о +26.9 +23.2 80 +36 +36 очень
душно
1009.6 1009.1
19 17.02 С 4 н/о н/о +26.5 +22.3 78 +35 +35 очень
душно
1009.4 1008.9
20 17.02 СЗ 2 н/о н/о +27.0 +23.3 80 +36 +36 очень
душно
1009.9 1009.4
21 17.02 штиль 0 н/о н/о +26.3 +24.0 87 +36 +36 очень
душно
1009.5 1009.0
22 17.02 ЮВ 1 н/о н/о +26.5 +24.7 90 +38 +38 очень
душно
1009.4 1008.9
23 17.02 ЮВ 6 н/о н/о +27.1 +24.7 87 +39 +39 очень
душно
1011.7 1011.2
00 18.02 В 4 н/о н/о +25.7 +24.1 91 +36 +36 очень
душно
1011.6 1011.1
01 18.02 ЮЗ 3 н/о в посл. час осадки н/о +27.1 +24.7 87 +39 +39 очень
душно
1010.4 1009.9 +25.5 0.2
02 18.02 ЮЗ 3 н/о н/о +28.0 +24.6 82 +40 +40 очень
душно
1010.2 1009.7
03 18.02 З 3 н/о н/о +29.5 +24.1 73 +41 +41 опасность
перегрева
1009.5 1009.0
04 18.02 З 3 н/о н/о +31.6 +24.0 64 +43 +43 опасность
перегрева
1008.6 1008.1
05 18.02 ЮЗ 3 н/о н/о +33.6 +25.0 61 +47 +47 опасность
перегрева
1007.8 1007.3
06 18.02 Ю 1 н/о н/о +34.9 +26.0 60 +51 +51 опасность
перегрева
1007.1 1006.6
07 18.02 Ю 2 н/о н/о +35.6 +24.8 54 +49 +49 опасность
перегрева
1006.3 1005.8
08 18.02 штиль 0 н/о н/о +36.0 +25.2 54 +50 +50 опасность
перегрева
1005.8 1005.3
09 18.02 С 2 н/о н/о +34.7 +24.9 57 +48 +48 опасность
перегрева
1005.8 1005.3
10 18.02 С 3 н/о н/о +32.3 +25.6 68 +47 +47 опасность
перегрева
1006.1 1005.6
11 18.02 С 3 н/о н/о +32.1 +25.7 69 +47 +47 опасность
перегрева
1006.4 1005.9
12 18.02 С 2 н/о н/о +31.9 +23.4 61 +43 +43 опасность
перегрева
1007.4 1006.9
13 18.02 СЗ 4 н/о н/о +26.6 +22.2 77 +35 +35 очень
душно
1008.5 1008.0 +36.9
14 18.02 Ю 6 н/о н/о +27.6 +21.6 70 +35 +35 очень
душно
1009.4 1008.9
15 18.02 СЗ 3 н/о н/о +27.5 +22.0 72 +36 +36 очень
душно
1008.1 1007.6
16 18.02 З 3 н/о н/о +27.2 +22.8 77 +36 +36 очень
душно
1007.3 1006.8
17 18.02 СЗ 2 н/о н/о +26.9 +23.6 82 +37 +37 очень
душно
1006.5 1006.0
18 18.02 штиль 0 н/о н/о +26.3 +24.2 88 +37 +37 очень
душно
1006.2 1005.7
19 18.02 штиль 0 н/о н/о +26.3 +24.3 89 +37 +37 очень
душно
1005.9 1005.4
20 18.02 В 3 н/о н/о +26.4 +24.8 91 +38 +38 очень
душно
1006.7 1006.2
21 18.02 В 4 н/о н/о +27.2 +24.7 86 +39 +39 очень
душно
1008.1 1007.6
22 18.02 СВ 4 н/о туман местами н/о +24.6 +24.6 100 +34 +34 очень
душно
1009.1 1008.6
23 18.02 З 4 н/о н/о +25.8 +25.8 100 +38 +38 очень
душно
1008.5 1008.0
00 19.02 З 2 н/о н/о +26.5 +26.5 100 +40 +40 очень
душно
1009.4 1008.9
01 19.02 ЮЗ 5 н/о {осадки} н/о +29.1 +26.5 86 +45 +45 опасность
перегрева
1009.6 1009.1 +24.5 12
02 19.02 З 3 н/о н/о +30.6 +25.0 72 +44 +44 опасность
перегрева
1009.5 1009.0
03 19.02 СЗ 2 н/о н/о +31.9 +25.2 68 +46 +46 опасность
перегрева
1008.5 1008.0
04 19.02 С 2 н/о н/о +32.8 +25.1 64 +47 +47 опасность
перегрева
1007.6 1007.1
05 19.02 СЗ 4 н/о н/о +33.3 +25.0 62 +47 +47 опасность
перегрева
1006.7 1006.2
06 19.02 СЗ 2 н/о н/о +33.6 +24.2 58 +46 +46 опасность
перегрева
1005.8 1005.3
07 19.02 СЗ 2 н/о н/о +34.5 +24.4 56 +47 +47 опасность
перегрева
1005.5 1005.0
08 19.02 СЗ 3 н/о н/о +33.4 +24.3 59 +46 +46 опасность
перегрева
1005.2 1004.7
09 19.02 штиль 0 н/о н/о +33.4 +24.3 59 +46 +46 опасность
перегрева
1005.7 1005.2
10 19.02 штиль 0 н/о н/о +31.3 +25.4 71 +46 +46 опасность
перегрева
1006.0 1005.5
11 19.02 штиль 0 н/о н/о +30.7 +26.6 79 +47 +47 опасность
перегрева
1006.9 1006.4
12 19.02 штиль 0 н/о н/о +29.5 +26.7 85 +46 +46 опасность
перегрева
1007.6 1007.1
13 19.02 штиль 0 н/о н/о +29.2 +27.0 88 +46 +46 опасность
перегрева
1008.2 1007.7 +34.9
14 19.02 штиль 0 н/о н/о +28.7 +26.7 89 +45 +45 опасность
перегрева
1008.6 1008.1
15 19.02 штиль 0 н/о н/о +28.5 +26.5 89 +44 +44 опасность
перегрева
1007.8 1007.3
16 19.02 ЮЗ 4 н/о н/о +29.0 +26.8 88 +45 +45 опасность
перегрева
1007.8 1007.3
17 19.02 СЗ 2 н/о н/о +28.5 +25.9 86 +43 +43 опасность
перегрева
1007.1 1006.6
18 19.02 З 1 н/о н/о +28.2 +25.6 86 +42 +42 опасность
перегрева
1006.6 1006.1
19 19.02 З 1 н/о н/о +27.6 +25.0 86 +40 +40 очень
душно
1006.7 1006.2
20 19.02 СЗ 1 н/о н/о +26.6 +23.7 84 +36 +36 очень
душно
1007.3 1006.8
21 19.02 штиль 0 н/о н/о +25.9 +24.1 90 +36 +36 очень
душно
1007.9 1007.4
22 19.02 З 2 н/о н/о +26.3 +25.3 94 +38 +38 очень
душно
1008.6 1008.1
23 19.02 штиль 0 н/о н/о +28.0 +24.2 80 +39 +39 очень
душно
1009.5 1009.0
00 20.02 В 2 н/о н/о +29.7 +23.9 71 +41 +41 опасность
перегрева
1009.8 1009.3
01 20.02 ЮВ 3 н/о н/о +31.4 +26.2 74 +47 +47 опасность
перегрева
1009.6 1009.1 +25.8
02 20.02 В 4 н/о н/о +32.9 +26.7 70 +50 +50 опасность
перегрева
1009.0 1008.5
03 20.02 СВ 4 н/о н/о +33.7 +25.7 63 +49 +49 опасность
перегрева
1008.1 1007.6
04 20.02 ЮВ 5 н/о н/о +33.4 +25.4 63 +48 +48 опасность
перегрева
1007.3 1006.8
05 20.02 З 2 н/о н/о +33.3 +23.0 55 +44 +44 опасность
перегрева
1006.9 1006.4
06 20.02 С 3 н/о н/о +35.1 +21.4 45 +43 +43 опасность
перегрева
1006.4 1005.9
07 20.02 СВ 3 н/о н/о +35.2 +22.2 47 +44 +44 опасность
перегрева
1005.9 1005.4
08 20.02 СВ 4 н/о н/о +34.0 +20.4 45 +41 +41 опасность
перегрева
1006.0 1005.5
09 20.02 С 5 н/о н/о +32.8 +22.6 55 +42 +42 опасность
перегрева
1006.4 1005.9
10 20.02 С 4 н/о н/о +30.8 +21.6 58 +39 +39 очень
душно
1007.3 1006.8
11 20.02 С 4 н/о н/о +30.0 +20.3 56 +37 +37 очень
душно
1008.5 1008.0
12 20.02 Ю 2 н/о н/о +29.5 +20.9 60 +37 +37 очень
душно
1009.4 1008.9
13 20.02 СЗ 2 н/о н/о +28.9 +21.7 65 +37 +37 очень
душно
1009.8 1009.3 +35.6
14 20.02 ЮЗ 2 н/о н/о +28.6 +20.9 63 +36 +36 очень
душно
1010.2 1009.7
15 20.02 Ю 1 н/о н/о +27.4 +21.7 71 +35 +35 очень
душно
1009.9 1009.4
16 20.02 штиль 0 н/о н/о +26.1 +23.0 83 +35 +35 очень
душно
1009.5 1009.0
17 20.02 штиль 0 н/о н/о +26.0 +23.3 85 +35 +35 очень
душно
1009.1 1008.6
18 20.02 штиль 0 н/о н/о +25.0 +23.6 92 +34 +34 очень
душно
1008.9 1008.4
19 20.02 штиль 0 н/о н/о +24.9 +24.0 95 +34 +34 очень
душно
1009.2 1008.7
20 20.02 штиль 0 н/о н/о +24.7 +24.2 97 +34 +34 очень
душно
1009.6 1009.1
21 20.02 СЗ 3 н/о н/о +24.7 +24.4 98 +34 +34 очень
душно
1010.0 1009.5

 

Местоположение метеостанции Wyndham Aero (Западная Австралия, Австралия): широта -15.50 долгота 128.15 высота над уровнем моря 4 м.

В архиве по умолчанию представлена погода в Wyndham Aero за последнюю неделю. Архивные данные за месяц целиком и за предыдущие месяцы, начиная с января 2011 года, Вы можете получить, выбрав интересующий диапазон дат из раскрывающегося списка и нажав кнопку "Ввод!".

Внимание! Время в таблицах - всемирное. Для получения местного времени необходимо прибавить поправку, которая в Wyndham Aero равна 8 ч.

Смотрите также архив погоды в соседних городах и на ближайших метеорологических станциях:

Погода в Kununurra (Западная Австралия, Австралия) (68 км)
Погода в Argyle Aero (Западная Австралия, Австралия) (130 км)
Погода в Port Keats Aero (Северная территория, Австралия) (203 км)
Погода в Kalumburu (Западная Австралия, Австралия) (209 км)
Погода в Truscott (Западная Австралия, Австралия) (247 км)
Погода в Troughton Island (Западная Австралия, Австралия) (290 км)
Погода в Manbulloo Csiro (Северная территория, Австралия) (291 км)
Погода в Halls Creek Airport (Западная Австралия, Австралия) (308 км)
Погода в Victoria River Downs (Северная территория, Австралия) (323 км)
Погода в Cape Don Lighthouse (Северная территория, Австралия) (375 км)

Пояснения к столбцам:

Ветер - указаны скорость ветра в м/с - средняя за 10 мин, порывы в срок и между сроками (в фигурных скобках) и направление, откуда дует ветер: С - северный, СВ - северо-восточный, В - восточный, ЮВ - юго-восточный, Ю - южный, ЮЗ - юго-западный, З - западный, СЗ - северо-западный.
Видимость - горизонтальная дальность видимости в метрах или километрах. При видимости от 1 до 10 км при отсутствии осадков обычно наблюдается дымка, при ухудшении видимости до 1 км и менее - туман. В сухую погоду видимость может ухудшаться дымом, пылью или мглою.
Явления - указаны атмосферные явления, наблюдавшиеся в срок или в последний час перед сроком; фигурными скобками обозначены явления, наблюдавшиеся между сроками (за 1-3 часа до срока); квадратными скобками обозначены град или гололедные отложения с указанием их диаметра в мм.
Облачность - указаны через наклонную черту общая и нижняя облачность в баллах и высота нижней границы облаков в метрах; квадратными скобками обозначены формы облаков: Ci - перистые, Cs - перисто-слоистые, Cc - перисто-кучевые, Ac - высококучевые, As - высокослоистые, Sc - слоисто-кучевые, Ns - слоисто-дождевые, Cu - кучевые, Cb - кучево-дождевые. Подробнее классификацию облаков см. в Атласе облаков (PDF).
T - Температура воздуха - температура, измеренная на высоте 2 м над землей.
Td - Температура точки росы - температура, при понижении до которой содержащийся в воздухе водяной пар достигнет насыщения.
f - Относительная влажность воздуха - влажноcть воздуха, измеренная на высоте 2 м над землей.
Te - Эффективная температура - температура, которую ощущает одетый по сезону человек в тени. Характеристика душности погоды. При расчете учитывается влияние влажности воздуха и скорости ветра на теплоощущения человека.
Tes - Эффективная температура на солнце - температура, которую ощущает человек, с поправкой на солнечный нагрев. Характеристика знойности погоды. Зависит от высоты солнца над горизонтом, облачности и скорости ветра. Ночью, в пасмурную погоду, а также при ветре 12 м/с и более поправка равна нулю.
P - Атмосферное давление - приведенное к уровню моря атмосферное давление.
Po - Атмосферное давление - измеренное на уровне метеостанции атмосферное давление.
Tmin - Минимальная температура - минимум температуры воздуха на высоте 2 м над землей.
Tmax - Максимальная температура - максимум температуры воздуха на высоте 2 м над землей.
R - Количество осадков - Количество выпавших осадков, мм. При наведении курсора мыши на число - период времени, за который выпало указанное количество осадков.
S - Снежный покров - Высота снежного покрова, см. При наведении курсора мыши на число - состояние снежного покрова и степень покрытия местности в баллах.